Regional Weather Roundup
Issued by NWS Portland, ME

Home | Current Version | Previous Version | Text Only | Print | Product List | Glossary On
Versions: 1 2 3 4 5 6 7 8 9 10 11 12 13 14 15 16 17 18 19 20 21 22 23 24 25 26 27 28 29 30 31 32 33 34 35 36 37 38 39 40 41 42 43 44 45 46 47 48 49 50
000
ASUS41 KGYX 290810
RWRGYX
WEATHER ROUNDUP FOR MAINE AND NEW HAMPSHIRE
NATIONAL WEATHER SERVICE GRAY ME
400 AM EDT SAT APR 29 2017

MEZ002-005-006-010-012-015-018-020-021-024-026-027-029-290900-
MAINE

CITY           SKY/WX    TMP DP  RH WIND       PRES   REMARKS
PORTLAND       CLOUDY    54  46  74 CALM      29.94F
SANFORD        CLOUDY    53  48  83 CALM      29.95F
WISCASSET      CLOUDY    47  46  97 CALM      29.95F
ROCKLAND       CLOUDY    45  44  97 CALM      29.95S
FRYEBURG       PTCLDY    52  46  80 CALM      29.95S
LEWISTONAUBURN CLOUDY    51  50  96 CALM      29.94F
AUGUSTA        CLOUDY    52  50  93 CALM      29.93F
BANGOR         FOG       47  47 100 SE3       29.93F VSB 1/8
GREENVILLE       N/A     50  41  71 CALM      29.91F
MILLINOCKET    FOG       46  46 100 CALM      29.92F VSB 1/4
HOULTON        CLEAR     51  51 100 S6        29.88S
PRESQUE ISLE   CLEAR     50  41  71 SW6       29.88S
FRENCHVILLE    CLEAR     48  40  73 W8        29.85S
CARIBOU        CLEAR     47  42  83 SW5       29.86F
$$

NHZ002-005-008-009-011-012-014-290900-
NEW HAMPSHIRE

CITY           SKY/WX    TMP DP  RH WIND       PRES   REMARKS
PORTSMOUTH     CLOUDY    59  45  59 CALM      29.94S
ROCHESTER      CLOUDY    56  41  57 CALM      29.94F
NASHUA         CLOUDY    58  51  78 CALM      29.98S
MANCHESTER     CLOUDY    59  46  62 CALM      29.96F
CONCORD        CLOUDY    56  48  74 CALM      29.97F
LACONIA        CLOUDY    60  44  55 W6        29.96F
PLYMOUTH       CLOUDY    52  48  85 CALM      29.96S
BERLIN         CLOUDY    42  38  85 CALM      29.95F
WHITEFIELD     CLOUDY    47  40  76 CALM      29.95S
JAFFREY        CLOUDY    55  52  89 CALM      30.01R
KEENE          CLOUDY    55  51  86 S3        30.01R
LEBANON        MOCLDY    58  43  57 S3        29.96S
MT WASHINGTON  CLOUDY    43  34  70 W52G62      N/A
$$

VTZ005-007-008-290900-
VERMONT

CITY           SKY/WX    TMP DP  RH WIND       PRES   REMARKS
ST JOHNSBURY     N/A     51  42  71 MISG      29.94S
MONTPELIER     CLOUDY    56  42  59 CALM      29.98S
BURLINGTON     CLOUDY    64  37  36 SW3       29.92S
$$

MAZ007-012-024-CTZ003-RIZ002-NYZ038-NYZ072-290900-
SOUTHERN NEW ENGLAND AND NY

CITY           SKY/WX    TMP DP  RH WIND       PRES   REMARKS
BOSTON         CLOUDY    61  58  90 S6        29.97F
WORCESTER      CLOUDY    61  53  75 SW8       30.02R
NANTUCKET      CLOUDY    52  51  97 SW13      30.03F
PROVIDENCE     CLOUDY    56  55  97 S5        30.01S
HARTFORD       CLOUDY    63  55  75 SE7       30.00R
ALBANY         DRIZZLE   63  52  67 SE3       29.99F
NEW YORK CITY  CLOUDY    72  59  63 S5        30.01S
$$

ANZ081-ANZ082-ANZ150-NHZ014-MEZ023>029-290900-
COASTAL MARINE OBSERVATIONS

STATION/POSITION TIME  TEMP    WIND        PRES    WAVE
                       AIR SEA DIR/SP/G            HT/PER
                 (UTC) (F)     (DEG/KT/KT) (MB)    (FT/S)
MOUNT DESERT ROC 0800   45                 1014.4F
MATINICUS ROCK   0700   46     250/ 11/ 11 1014.2R
ISLE OF SHOALS   0700   68     230/  6/  6 1014.1F
JEFFREYS LEDGE   0706      45                N/A     3/ 8
CASHES LEDGE BUO 0650   50 44              1014.8    4/ 8
GEORGES BANK BUO 0650   45 43              1017.4    5/ 8
$$

.............KEY..............
   WCI - WIND CHILL
   TC  - TEMPERATURE IN CELSIUS
   VSB - VISIBILITY IN MILES
   HX  - HEAT INDEX
   FAIR- INDICATES FEW OR NO CLOUDS BELOW 12,000 FT, WITH NO
         SIGNIFICANT WEATHER AND/OR OBSTRUCTIONS TO VISIBILITY.






USA.gov is the U.S. government's official web portal to all federal, state and local government web resources and services.